When you browse on this site, cookies collect data to enhance your experience and personalize the content and advertising you see.
Visit our Privacy Policy to learn more. By continuing to use the site, you agree to this use of cookies and data.
  • In Romania
  • List of Countries
  • For 7 days
  • Water Temperature
  • Satellite Maps
  • Weather Map
  • Weather Widgets
  • user-avatar
    Login

    Hourly Weather Newcastle

    Today, 20 November, Tuesday

    Time Temperature Precipitation Wind Pressure Humidity
    00:00 +4°C° 0 mm 4 mps 750 mmHg 80%
    01:00 +4°C° 0.1 mm 4 mps 750 mmHg 80%
    02:00 +3°C° 0.1 mm 5 mps 749 mmHg 80%
    03:00 +3°C° 0.1 mm 5 mps 749 mmHg 81%
    04:00 +3°C° 0.1 mm 5 mps 749 mmHg 80%
    05:00 +3°C° 0.1 mm 5 mps 748 mmHg 79%
    06:00 +3°C° 0 mm 3 mps 748 mmHg 83%
    07:00 +3°C° 0 mm 4 mps 748 mmHg 82%
    08:00 +3°C° 0 mm 5 mps 747 mmHg 80%
    09:00 +3°C° 0 mm 5 mps 747 mmHg 78%
    10:00 +3°C° 0.1 mm 6 mps 746 mmHg 76%
    11:00 +4°C° 0.1 mm 6 mps 746 mmHg 75%
    12:00 +4°C° 0.1 mm 7 mps 745 mmHg 74%
    13:00 +4°C° 0.4 mm 6 mps 745 mmHg 75%
    14:00 +3°C° 0.4 mm 6 mps 744 mmHg 77%
    15:00 +3°C° 0.4 mm 6 mps 744 mmHg 78%
    16:00 +3°C° 0.2 mm 6 mps 744 mmHg 79%
    17:00 +2°C° 0.2 mm 5 mps 744 mmHg 80%
    18:00 +2°C° 0.2 mm 5 mps 744 mmHg 82%
    19:00 +3°C° 0 mm 4 mps 744 mmHg 82%
    20:00 +1°C° 0 mm 4 mps 744 mmHg 83%
    21:00 +1°C° 0 mm 4 mps 743 mmHg 83%
    22:00 +1°C° 0.1 mm 4 mps 743 mmHg 84%
    23:00 +2°C° 0.1 mm 3 mps 743 mmHg 85%

    Tomorrow, 21 November, Wednesday

    Time Temperature Precipitation Wind Pressure Humidity
    00:00 +2°C° 0.1 mm 3 mps 742 mmHg 86%
    01:00 +2°C° 0.5 mm 3 mps 742 mmHg 87%
    02:00 +2°C° 0.5 mm 3 mps 742 mmHg 88%
    03:00 +2°C° 0.5 mm 3 mps 741 mmHg 89%
    04:00 +2°C° 0.2 mm 3 mps 741 mmHg 89%
    05:00 +2°C° 0.2 mm 3 mps 742 mmHg 89%
    06:00 +1°C° 0.2 mm 4 mps 742 mmHg 89%
    07:00 +1°C° 0.1 mm 4 mps 742 mmHg 88%
    08:00 +1°C° 0.1 mm 4 mps 743 mmHg 88%
    09:00 +1°C° 0.1 mm 5 mps 744 mmHg 87%
    10:00 +2°C° 0 mm 5 mps 744 mmHg 84%
    11:00 +2°C° 0 mm 5 mps 745 mmHg 81%
    12:00 +3°C° 0 mm 5 mps 745 mmHg 78%
    13:00 +3°C° 0 mm 5 mps 746 mmHg 78%
    14:00 +4°C° 0 mm 4 mps 746 mmHg 78%
    15:00 +4°C° 0 mm 4 mps 747 mmHg 78%
    16:00 +3°C° 0 mm 4 mps 747 mmHg 80%
    17:00 +3°C° 0 mm 4 mps 748 mmHg 83%
    18:00 +1°C° 0 mm 4 mps 749 mmHg 85%
    19:00 +2°C° 0 mm 3 mps 749 mmHg 86%
    20:00 +1°C° 0 mm 3 mps 749 mmHg 86%
    21:00 +1°C° 0 mm 3 mps 750 mmHg 87%
    22:00 +1°C° 0 mm 3 mps 750 mmHg 87%
    23:00 +1°C° 0 mm 2 mps 750 mmHg 88%

    Day after tomorrow, 22 November, Thursday

    Time Temperature Precipitation Wind Pressure Humidity
    00:00 +1°C° 0 mm 2 mps 751 mmHg 89%
    01:00 +1°C° 0 mm 2 mps 751 mmHg 89%
    02:00 +1°C° 0 mm 2 mps 750 mmHg 89%
    03:00 +1°C° 0 mm 2 mps 750 mmHg 89%
    04:00 +1°C° 0 mm 2 mps 750 mmHg 89%
    05:00 +1°C° 0 mm 2 mps 750 mmHg 89%
    06:00 +1°C° 0 mm 2 mps 750 mmHg 89%
    07:00 +1°C° 0.1 mm 2 mps 750 mmHg 90%
    08:00 +2°C° 0.1 mm 2 mps 750 mmHg 90%
    09:00 +2°C° 0.1 mm 2 mps 750 mmHg 91%
    10:00 +3°C° 0 mm 2 mps 750 mmHg 88%
    11:00 +4°C° 0 mm 3 mps 750 mmHg 86%
    12:00 +5°C° 0 mm 3 mps 750 mmHg 83%
    13:00 +5°C° 0 mm 3 mps 750 mmHg 83%
    14:00 +4°C° 0 mm 3 mps 749 mmHg 83%
    15:00 +4°C° 0 mm 3 mps 749 mmHg 84%
    16:00 +4°C° 0 mm 3 mps 749 mmHg 85%
    17:00 +4°C° 0 mm 3 mps 749 mmHg 87%
    18:00 +3°C° 0 mm 3 mps 749 mmHg 89%
    19:00 +3°C° 0 mm 3 mps 750 mmHg 89%
    20:00 +3°C° 0 mm 3 mps 750 mmHg 90%
    21:00 +3°C° 0 mm 3 mps 750 mmHg 91%
    22:00 +3°C° 0 mm 3 mps 750 mmHg 92%
    23:00 +3°C° 0 mm 3 mps 750 mmHg 93%

    23 November, Friday

    Time Temperature Precipitation Wind Pressure Humidity
    00:00 +3°C° 0 mm 3 mps 750 mmHg 93%
    01:00 +3°C° 0 mm 3 mps 750 mmHg 93%
    02:00 +3°C° 0 mm 3 mps 749 mmHg 93%
    03:00 +3°C° 0 mm 3 mps 749 mmHg 93%
    04:00 +3°C° 0 mm 3 mps 749 mmHg 93%
    05:00 +3°C° 0 mm 3 mps 749 mmHg 94%
    06:00 +3°C° 0 mm 3 mps 749 mmHg 94%
    07:00 +4°C° 0 mm 3 mps 749 mmHg 94%
    08:00 +4°C° 0 mm 3 mps 749 mmHg 94%
    09:00 +4°C° 0 mm 3 mps 749 mmHg 94%
    10:00 +4°C° 0 mm 3 mps 749 mmHg 93%
    11:00 +6°C° 0 mm 2 mps 749 mmHg 92%
    12:00 +6°C° 0 mm 2 mps 749 mmHg 90%
    13:00 +6°C° 0 mm 2 mps 749 mmHg 90%
    14:00 +7°C° 0 mm 2 mps 748 mmHg 91%
    15:00 +7°C° 0 mm 2 mps 748 mmHg 91%
    16:00 +6°C° 0 mm 2 mps 748 mmHg 92%
    17:00 +6°C° 0 mm 2 mps 748 mmHg 93%
    18:00 +6°C° 0 mm 2 mps 748 mmHg 95%
    19:00 +5°C° 0 mm 2 mps 748 mmHg 95%
    20:00 +5°C° 0 mm 2 mps 748 mmHg 95%
    21:00 +5°C° 0 mm 2 mps 748 mmHg 95%
    22:00 +5°C° 0 mm 2 mps 748 mmHg 95%
    23:00 +6°C° 0 mm 1 mps 748 mmHg 94%

    24 November, Saturday

    Time Temperature Precipitation Wind Pressure Humidity
    00:00 +6°C° 0 mm 1 mps 748 mmHg 94%
    01:00 +6°C° 0 mm 1 mps 748 mmHg 94%
    02:00 +5°C° 0 mm 2 mps 748 mmHg 94%
    03:00 +5°C° 0 mm 2 mps 748 mmHg 94%
    04:00 +5°C° 0 mm 2 mps 748 mmHg 94%
    05:00 +5°C° 0 mm 2 mps 748 mmHg 95%
    06:00 +4°C° 0 mm 2 mps 748 mmHg 95%
    07:00 +5°C° 0 mm 2 mps 748 mmHg 95%
    08:00 +5°C° 0 mm 2 mps 748 mmHg 94%
    09:00 +5°C° 0 mm 2 mps 749 mmHg 94%
    10:00 +6°C° 0 mm 2 mps 749 mmHg 91%
    11:00 +5°C° 0 mm 3 mps 749 mmHg 89%
    12:00 +7°C° 0 mm 3 mps 749 mmHg 87%
    13:00 +7°C° 0 mm 2 mps 749 mmHg 86%
    14:00 +7°C° 0 mm 2 mps 749 mmHg 86%
    15:00 +7°C° 0 mm 2 mps 749 mmHg 86%
    16:00 +6°C° 0 mm 2 mps 749 mmHg 88%
    17:00 +5°C° 0 mm 2 mps 749 mmHg 90%
    18:00 +4°C° 0 mm 2 mps 749 mmHg 92%
    19:00 +4°C° 0 mm 2 mps 749 mmHg 93%
    20:00 +4°C° 0 mm 2 mps 750 mmHg 93%
    21:00 +4°C° 0 mm 2 mps 750 mmHg 94%
    22:00 +4°C° 0 mm 2 mps 750 mmHg 94%
    23:00 +4°C° 0 mm 2 mps 750 mmHg 94%

    25 November, Sunday

    Time Temperature Precipitation Wind Pressure Humidity
    00:00 +4°C° 0 mm 2 mps 750 mmHg 94%
    01:00 +4°C° 0 mm 2 mps 750 mmHg 95%
    02:00 +4°C° 0 mm 2 mps 750 mmHg 95%
    03:00 +4°C° 0 mm 2 mps 750 mmHg 95%
    04:00 +4°C° 0 mm 2 mps 750 mmHg 95%
    05:00 +4°C° 0 mm 2 mps 750 mmHg 95%
    06:00 +4°C° 0 mm 2 mps 750 mmHg 95%
    07:00 +4°C° 0 mm 2 mps 751 mmHg 94%
    08:00 +4°C° 0 mm 2 mps 751 mmHg 94%
    09:00 +4°C° 0 mm 2 mps 751 mmHg 94%
    10:00 +5°C° 0 mm 2 mps 751 mmHg 91%
    11:00 +6°C° 0 mm 2 mps 751 mmHg 88%
    12:00 +7°C° 0 mm 2 mps 752 mmHg 85%
    13:00 +6°C° 0 mm 2 mps 751 mmHg 85%
    14:00 +6°C° 0 mm 2 mps 751 mmHg 85%
    15:00 +6°C° 0 mm 2 mps 751 mmHg 85%
    16:00 +5°C° 0 mm 2 mps 751 mmHg 87%
    17:00 +5°C° 0 mm 2 mps 751 mmHg 88%
    18:00 +4°C° 0 mm 2 mps 751 mmHg 90%
    19:00 +4°C° 0 mm 2 mps 752 mmHg 90%
    20:00 +3°C° 0 mm 2 mps 752 mmHg 91%
    21:00 +3°C° 0 mm 2 mps 752 mmHg 91%
    22:00 +3°C° 0 mm 2 mps 752 mmHg 91%
    23:00 +2°C° 0 mm 2 mps 752 mmHg 91%
    Show more